MST,Max TemperatureF,Mean TemperatureF,Min TemperatureF,Max Dew PointF,MeanDew PointF,Min DewpointF,Max Humidity, Mean Humidity, Min Humidity, Max Sea Level PressureIn, Mean Sea Level PressureIn, Min Sea Level PressureIn, Max VisibilityMiles, Mean VisibilityMiles, Min VisibilityMiles, Max Wind SpeedMPH, Mean Wind SpeedMPH, Max Gust SpeedMPH,PrecipitationIn, CloudCover, Events, WindDirDegrees
2011-11-1,43,34,24,29,22,17,75,58,41,30.60,30.37,30.20,10,9,1,21,7,24,T,3,Snow,274
2011-11-2,45,30,15,19,16,14,92,61,30,30.64,30.45,30.09,10,10,10,8,2,12,0.00,0,,268
2011-11-3,53,38,23,16,13,10,65,42,19,30.16,29.92,29.68,10,10,10,12,3,15,0.00,0,,273
2011-11-4,40,32,24,22,19,16,74,57,40,29.78,29.72,29.58,10,10,5,14,6,17,T,3,Snow,292
2011-11-5,36,30,24,30,25,12,100,75,50,29.91,29.68,29.59,10,4,1,17,6,23,0.11,7,Snow,268
2011-11-6,36,25,13,17,13,9,80,59,38,30.14,30.00,29.91,10,10,10,21,6,26,0.00,1,,238
2011-11-7,38,26,14,17,14,11,88,62,35,30.29,30.21,30.05,10,10,10,22,8,29,0.00,1,,258
2011-11-8,62,45,28,21,19,16,69,51,33,30.48,30.30,30.09,10,10,10,23,6,31,0.00,3,,266
2011-11-9,44,32,20,21,18,17,84,60,36,30.63,30.53,30.43,10,10,10,12,3,15,0.00,0,,171
2011-11-10,48,34,20,21,18,16,88,61,34,30.41,30.20,30.01,10,10,10,8,2,10,0.00,0,,209
2011-11-11,59,39,19,21,12,2,74,43,12,30.03,29.71,29.37,10,10,10,20,6,28,0.00,0,,203
2011-11-12,49,41,33,34,20,13,70,45,19,29.65,29.51,29.30,10,10,10,36,14,46,0.02,6,Rain,251
2011-11-13,46,39,31,30,23,18,69,53,36,29.63,29.52,29.38,10,9,0,33,10,45,0.01,7,Snow,261
2011-11-14,43,34,24,30,27,16,100,73,45,29.88,29.58,29.46,10,5,0,33,10,43,0.13,8,Fog-Snow,277
2011-11-15,30,24,17,21,14,6,81,68,54,30.36,30.10,29.79,10,7,4,29,10,45,T,5,Snow,275
2011-11-16,27,17,7,13,8,3,80,63,46,30.50,30.34,30.09,10,10,9,15,2,21,0.00,0,,290
2011-11-17,48,33,18,34,22,10,67,55,42,30.05,29.73,29.51,10,10,2,28,11,37,0.05,4,Rain,270
2011-11-18,30,18,5,19,7,-1,92,75,58,30.03,29.78,29.67,10,2,0,17,8,22,0.30,8,Fog-Snow,309
2011-11-19,14,8,1,7,0,-6,91,74,57,30.18,29.97,29.79,10,7,1,10,3,14,0.06,6,Snow,277
2011-11-20,28,16,4,15,9,3,88,72,55,30.15,30.09,29.89,10,10,7,6,1,7,0.00,4,,246
2011-11-21,39,25,11,22,15,9,92,70,48,30.14,30.08,29.97,10,10,8,13,1,20,0.00,2,,213
2011-11-22,53,38,22,28,24,17,74,56,38,30.06,29.94,29.79,10,10,10,26,11,36,0.00,1,,200
2011-11-23,58,48,38,28,23,19,46,35,24,29.87,29.77,29.67,10,10,10,29,16,39,0.00,0,,182
2011-11-24,53,42,31,29,26,21,78,57,35,29.79,29.73,29.63,10,10,10,14,5,18,0.00,1,,243
2011-11-25,46,37,28,30,21,11,82,62,41,30.60,29.97,29.66,10,8,0,37,16,52,0.05,4,Fog-Rain-Snow,270
2011-11-26,36,27,17,20,13,10,75,57,38,30.77,30.65,30.43,10,10,10,16,4,21,0.00,1,,271
2011-11-27,56,40,24,25,20,16,69,47,24,30.51,30.24,30.05,10,10,10,18,4,23,0.00,0,,243
2011-11-28,52,42,32,31,27,23,70,50,29,30.37,30.29,30.06,10,10,10,24,10,32,0.00,1,,271
2011-11-29,40,35,30,28,26,25,82,71,59,30.37,30.25,30.00,10,10,10,12,3,14,0.00,3,,231
2011-11-30,40,33,25,29,24,14,85,67,48,30.76,30.34,29.98,10,5,0,32,14,38,0.04,7,Fog-Snow,320